Time,TemperatureF,DewpointF,PressureIn,WindDirection,WindDirectionDegrees,WindSpeedMPH,WindSpeedGustMPH,Humidity,HourlyPrecipIn,Conditions,Clouds,dailyrainin,SoftwareType,DateUTC
2013-09-19 00:01:00,49.0,45.0,30.19,SW,214,0.0,0.0,85,0.00,,,0.00,,2013-09-19 04:01:00,
2013-09-19 00:14:00,48.0,44.0,30.19,SSW,213,0.0,0.0,86,0.00,,,0.00,,2013-09-19 04:14:00,
2013-09-19 00:25:00,48.0,45.0,30.19,SW,214,0.0,0.0,89,0.00,,,0.00,,2013-09-19 04:25:00,
2013-09-19 00:44:00,47.0,44.0,30.19,SW,214,0.0,0.0,89,0.00,,,0.00,,2013-09-19 04:44:00,
2013-09-19 00:54:00,47.0,44.0,30.19,SW,214,0.0,0.0,89,0.00,,,0.00,,2013-09-19 04:54:00,
2013-09-19 01:13:00,46.0,44.0,30.19,SW,214,0.0,0.0,91,0.00,,,0.00,,2013-09-19 05:13:00,
2013-09-19 01:23:00,46.0,44.0,30.19,ESE,117,0.0,0.0,91,0.00,,,0.00,,2013-09-19 05:23:00,
2013-09-19 01:43:00,45.0,43.0,30.19,ESE,117,0.0,0.0,92,0.00,,,0.00,,2013-09-19 05:43:00,
2013-09-19 01:52:00,45.0,43.0,30.19,SE,139,0.0,0.0,93,0.00,,,0.00,,2013-09-19 05:52:00,
2013-09-19 02:12:00,45.0,43.0,30.19,SE,138,0.0,0.0,94,0.00,,,0.00,,2013-09-19 06:12:00,
2013-09-19 02:22:00,45.0,43.0,30.19,SE,138,0.0,0.0,94,0.00,,,0.00,,2013-09-19 06:22:00,
2013-09-19 02:43:00,44.0,42.0,30.19,SE,138,0.0,0.0,94,0.00,,,0.00,,2013-09-19 06:43:00,
2013-09-19 02:52:00,44.0,43.0,30.19,SE,139,0.0,0.0,95,0.00,,,0.00,,2013-09-19 06:52:00,
2013-09-19 03:12:00,44.0,43.0,30.18,SE,138,0.0,0.0,95,0.00,,,0.00,,2013-09-19 07:12:00,
2013-09-19 03:22:00,43.0,42.0,30.17,SE,138,0.0,0.0,95,0.00,,,0.00,,2013-09-19 07:22:00,
2013-09-19 03:42:00,43.0,42.0,30.18,WSW,240,0.0,0.0,96,0.00,,,0.00,,2013-09-19 07:42:00,
2013-09-19 03:52:00,43.0,42.0,30.18,WSW,240,0.0,0.0,96,0.00,,,0.00,,2013-09-19 07:52:00,
2013-09-19 04:12:00,43.0,42.0,30.18,WSW,240,0.0,0.0,96,0.00,,,0.00,,2013-09-19 08:12:00,
2013-09-19 04:22:00,44.0,43.0,30.18,WSW,240,0.0,0.0,96,0.00,,,0.00,,2013-09-19 08:22:00,
2013-09-19 04:52:00,43.0,42.0,30.18,WSW,240,0.0,0.0,96,0.00,,,0.00,,2013-09-19 08:52:00,
2013-09-19 05:11:00,42.0,41.0,30.19,WSW,240,0.0,0.0,96,0.00,,,0.00,,2013-09-19 09:11:00,
2013-09-19 05:22:00,41.0,40.0,30.18,WSW,241,0.0,0.0,96,0.00,,,0.00,,2013-09-19 09:22:00,
2013-09-19 05:53:00,40.0,39.0,30.18,WSW,240,0.0,0.0,96,0.00,,,0.00,,2013-09-19 09:53:00,
2013-09-19 06:12:00,40.0,39.0,30.18,WSW,240,0.0,0.0,97,0.00,,,0.00,,2013-09-19 10:12:00,
2013-09-19 06:24:00,40.0,39.0,30.18,WSW,240,0.0,0.0,96,0.00,,,0.00,,2013-09-19 10:24:00,
2013-09-19 06:43:00,39.0,38.0,30.18,WSW,240,0.0,0.0,96,0.00,,,0.00,,2013-09-19 10:43:00,
2013-09-19 06:52:00,39.0,38.0,30.19,WSW,240,0.0,0.0,97,0.00,,,0.00,,2013-09-19 10:52:00,
2013-09-19 07:12:00,38.0,37.0,30.18,WSW,240,0.0,0.0,96,0.00,,,0.00,,2013-09-19 11:12:00,
2013-09-19 07:22:00,38.0,37.0,30.19,WSW,240,0.0,0.0,97,0.00,,,0.00,,2013-09-19 11:22:00,
2013-09-19 07:42:00,41.0,40.0,30.19,WSW,240,0.0,0.0,97,0.00,,,0.00,,2013-09-19 11:42:00,
2013-09-19 07:53:00,40.0,39.0,30.19,WSW,240,0.0,0.0,96,0.00,,,0.00,,2013-09-19 11:53:00,
2013-09-19 08:11:00,41.0,40.0,30.18,WSW,240,0.0,0.0,97,0.00,,,0.00,,2013-09-19 12:11:00,
2013-09-19 08:22:00,42.0,41.0,30.18,WSW,240,0.0,0.0,97,0.00,,,0.00,,2013-09-19 12:22:00,
2013-09-19 08:52:00,43.0,42.0,30.18,WSW,240,0.0,0.0,97,0.00,,,0.00,,2013-09-19 12:52:00,
2013-09-19 09:11:00,45.0,44.0,30.17,WSW,240,0.0,0.0,97,0.00,,,0.00,,2013-09-19 13:11:00,
2013-09-19 09:42:00,50.0,48.0,30.19,ENE,63,0.0,0.0,92,0.00,,,0.00,,2013-09-19 13:42:00,
2013-09-19 09:52:00,52.0,49.0,30.19,NE,44,0.0,0.0,88,0.00,,,0.00,,2013-09-19 13:52:00,
2013-09-19 10:12:00,53.0,49.0,30.19,NE,44,0.0,0.0,86,0.00,,,0.00,,2013-09-19 14:12:00,
2013-09-19 11:11:00,62.0,52.0,30.18,WSW,246,2.0,3.0,71,0.00,,,0.00,,2013-09-19 15:11:00,
2013-09-19 11:43:00,65.0,53.0,30.18,WNW,284,1.0,4.0,66,0.00,,,0.00,,2013-09-19 15:43:00,
2013-09-19 11:54:00,66.0,54.0,30.18,NW,309,2.0,5.0,66,0.00,,,0.00,,2013-09-19 15:54:00,
2013-09-19 12:04:00,66.0,54.0,30.18,NW,309,2.0,5.0,66,0.00,,,0.00,,2013-09-19 16:04:00,
2013-09-19 12:24:00,68.0,55.0,30.16,WNW,288,4.0,6.0,63,0.00,,,0.00,,2013-09-19 16:24:00,
2013-09-19 12:43:00,68.0,56.0,30.16,South,188,2.0,6.0,65,0.00,,,0.00,,2013-09-19 16:43:00,
2013-09-19 12:53:00,70.0,56.0,30.15,NNW,332,1.0,6.0,62,0.00,,,0.00,,2013-09-19 16:53:00,
2013-09-19 13:12:00,71.0,56.0,30.15,SSE,160,1.0,4.0,60,0.00,,,0.00,,2013-09-19 17:12:00,
2013-09-19 13:23:00,71.0,56.0,30.15,South,191,2.0,6.0,60,0.00,,,0.00,,2013-09-19 17:23:00,
2013-09-19 13:53:00,72.0,55.0,30.13,West,266,2.0,10.0,56,0.00,,,0.00,,2013-09-19 17:53:00,
2013-09-19 14:11:00,72.0,57.0,30.12,West,269,2.0,6.0,59,0.00,,,0.00,,2013-09-19 18:11:00,
2013-09-19 14:22:00,73.0,56.0,30.12,West,266,3.0,9.0,55,0.00,,,0.00,,2013-09-19 18:22:00,
2013-09-19 14:42:00,72.0,56.0,30.11,WNW,302,3.0,7.0,58,0.00,,,0.00,,2013-09-19 18:42:00,
2013-09-19 14:52:00,73.0,57.0,30.11,SSE,167,2.0,6.0,57,0.00,,,0.00,,2013-09-19 18:52:00,
2013-09-19 15:12:00,73.0,56.0,30.10,WSW,253,2.0,6.0,56,0.00,,,0.00,,2013-09-19 19:12:00,
2013-09-19 15:22:00,74.0,58.0,30.10,NNW,328,1.0,4.0,58,0.00,,,0.00,,2013-09-19 19:22:00,
2013-09-19 15:52:00,74.0,58.0,30.09,WSW,256,2.0,4.0,57,0.00,,,0.00,,2013-09-19 19:52:00,
2013-09-19 16:12:00,75.0,59.0,30.09,SSE,153,1.0,7.0,57,0.00,,,0.00,,2013-09-19 20:12:00,
2013-09-19 16:22:00,75.0,58.0,30.09,WNW,283,4.0,5.0,56,0.00,,,0.00,,2013-09-19 20:22:00,
2013-09-19 16:42:00,74.0,57.0,30.09,West,273,3.0,9.0,56,0.00,,,0.00,,2013-09-19 20:42:00,
2013-09-19 16:52:00,75.0,59.0,30.09,West,276,2.0,5.0,58,0.00,,,0.00,,2013-09-19 20:52:00,
2013-09-19 17:12:00,75.0,59.0,30.09,SW,222,1.0,5.0,58,0.00,,,0.00,,2013-09-19 21:12:00,
2013-09-19 17:22:00,75.0,59.0,30.09,SSE,155,0.0,6.0,57,0.00,,,0.00,,2013-09-19 21:22:00,
2013-09-19 17:44:00,75.0,59.0,30.09,SSE,165,1.0,5.0,57,0.00,,,0.00,,2013-09-19 21:44:00,
2013-09-19 17:55:00,75.0,59.0,30.09,East,85,0.0,3.0,58,0.00,,,0.00,,2013-09-19 21:55:00,
2013-09-19 18:14:00,74.0,58.0,30.09,SSW,200,2.0,4.0,57,0.00,,,0.00,,2013-09-19 22:14:00,
2013-09-19 18:24:00,72.0,57.0,30.09,SW,226,1.0,3.0,60,0.00,,,0.00,,2013-09-19 22:24:00,
2013-09-19 18:53:00,71.0,58.0,30.10,SSE,152,1.0,3.0,63,0.00,,,0.00,,2013-09-19 22:53:00,
2013-09-19 19:12:00,69.0,57.0,30.10,WSW,255,1.0,2.0,66,0.00,,,0.00,,2013-09-19 23:12:00,
2013-09-19 19:23:00,67.0,57.0,30.10,WSW,243,0.0,1.0,71,0.00,,,0.00,,2013-09-19 23:23:00,
2013-09-19 19:53:00,64.0,57.0,30.10,WSW,239,0.0,0.0,77,0.00,,,0.00,,2013-09-19 23:53:00,
2013-09-19 20:12:00,62.0,56.0,30.10,WSW,239,0.0,0.0,80,0.00,,,0.00,,2013-09-20 00:12:00,
2013-09-19 20:22:00,61.0,55.0,30.10,SW,218,0.0,0.0,82,0.00,,,0.00,,2013-09-20 00:22:00,
2013-09-19 20:42:00,61.0,56.0,30.10,SW,215,0.0,0.0,84,0.00,,,0.00,,2013-09-20 00:42:00,
2013-09-19 20:52:00,60.0,55.0,30.10,SW,214,0.0,0.0,85,0.00,,,0.00,,2013-09-20 00:52:00,
2013-09-19 21:12:00,60.0,56.0,30.10,SW,214,0.0,0.0,86,0.00,,,0.00,,2013-09-20 01:12:00,
2013-09-19 21:22:00,60.0,56.0,30.10,SW,215,0.0,0.0,87,0.00,,,0.00,,2013-09-20 01:22:00,
2013-09-19 21:42:00,59.0,55.0,30.10,SW,214,0.0,0.0,88,0.00,,,0.00,,2013-09-20 01:42:00,
2013-09-19 21:52:00,58.0,55.0,30.10,SW,214,0.0,0.0,89,0.00,,,0.00,,2013-09-20 01:52:00,
2013-09-19 22:12:00,58.0,55.0,30.10,SW,215,0.0,0.0,90,0.00,,,0.00,,2013-09-20 02:12:00,
2013-09-19 22:22:00,57.0,54.0,30.10,SW,215,0.0,0.0,91,0.00,,,0.00,,2013-09-20 02:22:00,
2013-09-19 22:42:00,57.0,55.0,30.09,SW,215,0.0,0.0,92,0.00,,,0.00,,2013-09-20 02:42:00,
2013-09-19 22:53:00,56.0,54.0,30.09,SW,215,0.0,0.0,92,0.00,,,0.00,,2013-09-20 02:53:00,
2013-09-19 23:12:00,56.0,54.0,30.09,SW,215,0.0,0.0,93,0.00,,,0.00,,2013-09-20 03:12:00,
2013-09-19 23:23:00,55.0,53.0,30.09,SW,215,0.0,0.0,93,0.00,,,0.00,,2013-09-20 03:23:00,
2013-09-19 23:45:00,55.0,54.0,30.09,SW,215,0.0,0.0,95,0.00,,,0.00,,2013-09-20 03:45:00,
2013-09-19 23:56:00,55.0,54.0,30.09,SW,215,0.0,0.0,95,0.00,,,0.00,,2013-09-20 03:56:00,